Track STARLINK-1945 now! 10-day predictions STARLINK-1945 is classified as:
1 46775U 20074AN 21024.91667824 -.00012898 00000-0 -84833-3 0 9993 2 46775 53.0473 90.3782 0000812 83.4385 213.0292 15.06412072 1754